GAOFEN 14

导读 | 星芒AI

高分十四号(GAOFEN-14)卫星是中国高分辨率对地观测系统的重要组成部分,由航天科技集团研制,于2019年发射。该卫星主要用于国土普查、环境监测、资源调查和防灾减灾等领域,具备高分辨率、宽覆盖和快速响应能力。GAOFEN-14采用先进的光学遥感技术,提升了中国在遥感数据获取和应用方面的能力,为国家经济发展和安全提供了有力支持。

基本信息
目录编号:
47231
目录名称:
GAOFEN 14
国际标识:
2020-092A
轨道中心:
EARTH
卫星名称:
GAOFEN 14
卫星全名:
--
卫星状态:
在轨 (已飞行1788 天)
发射日期:
2020-12-06 UTC
国别 :
中国 (CN)
星等 :
--
轨道信息
数据来源 国际轨道数据
星历时间: 2025-10-28T22:44:42+0800
16小时前
查看轨道信息
半长轴: 6867.34km
偏心率: 0.0004486
轨道倾角: 97.253°
近地点辐角 2.169°
升交点赤经 9.706°
平近点角 357.956°
近地点: 486.124km
远地点: 492.286km
周期: 94.394分钟
每日圈数: 15.255274
详细信息
使用方式:
暂无
2D轨道图
3D轨道图
轨道高度分析图
轨道倾角分析图
轨道综合分析图
查看轨道综合分析图